Flag for U.S.A. Weather past 2 weeks in Toccoa, Georgia, U.S.A.

Now
74 °F

Clear.


Feels Like: 76 °F
Forecast: 71 / 94 °F
Wind: 6 mph from West

Location: Clemson-Oconee County Airport

Current Time: Aug 21, 2014 at 3:23:19 AM

Latest Report: Aug 21, 2014 at 2:54 AM


Visibility: 10 mi

Pressure: 30.02 "Hg

Humidity: 71%

Dew point: 64 °F

Location of ToccoaLocation

Historic Weather in Toccoa — Graph

°F

Toccoa temperature yesterday

Maximum temperature yesterday: 92 °F (at 3:54 PM)
Minimum temperature yesterday: 72 °F (at 5:54 AM)
Average temperature yesterday: 80 °F

Past Weeks' High & Low Weather Summary

 TemperatureHumidityPressure
High94 °F (Aug 7, 4:54 PM)91% (Aug 12, 7:54 AM)30.14 "Hg (Aug 12, 7:54 AM)
Low65 °F (Aug 14, 5:54 AM)33% (Aug 13, 4:54 PM)29.78 "Hg (Aug 12, 5:54 PM)
Average78 °F68%29.98 "Hg
* Reported Aug 6 1:54 AM — Aug 21 1:54 AM, Toccoa, Weather by CustomWeather, © 2014

Note: Actual official high and low records may vary slightly from our data, if they occured in-between our weather recording intervals... More about our weather records

Advertising

Toccoa weather history for previous 24 hours

 ConditionsComfort  
Time TempWeatherWind HumidityBarometerVisibility
1:54 AM
Aug 21
76 °FClear.5 mph67%30.04 "Hg10 mi
12:54 AM77 °FClear.8 mph69%30.04 "Hg10 mi
11:54 PM
Aug 20
79 °FClear.3 mph67%30.05 "Hg10 mi
10:54 PM79 °FPassing clouds.8 mph69%30.07 "Hg10 mi
9:54 PM77 °FClear.7 mph66%30.05 "Hg10 mi
8:54 PM75 °FSunny.8 mph69%30.03 "Hg10 mi
7:54 PM78 °FSunny.5 mph58%30.03 "Hg10 mi
6:54 PM80 °FThunderstorms. More clouds than sun.13 mph52%30.02 "Hg10 mi
5:54 PM88 °FThundershowers. Sunny.5 mph57%29.97 "Hg10 mi
4:54 PM91 °FPassing clouds.6 mph50%29.96 "Hg10 mi
3:54 PM92 °FSunny.No wind51%29.96 "Hg10 mi
2:54 PM91 °FSunny.3 mph49%29.98 "Hg10 mi
1:54 PM91 °FSunny.3 mph49%30.00 "Hg10 mi
12:54 PM90 °FSunny.No wind48%30.02 "Hg10 mi
11:54 AM88 °FSunny.6 mph54%30.02 "Hg10 mi
10:54 AM84 °FSunny.3 mph59%30.01 "Hg10 mi
9:54 AM81 °FSunny.No wind65%30.01 "Hg10 mi
8:54 AM77 °FSunny.No wind77%30.00 "Hg10 mi
7:54 AM74 °FClear.No wind79%29.97 "Hg10 mi
6:54 AM72 °FClear.No wind81%29.95 "Hg10 mi
5:54 AM72 °FClear.No wind78%29.93 "Hg10 mi
4:54 AM73 °FClear.No wind79%29.90 "Hg10 mi
3:54 AM73 °FClear.5 mph79%29.91 "Hg10 mi
Weather by CustomWeather, © 2014

See weather overviewHow to use our weather pages